timestamp,wind_dir_avg,wind_spd_avg,wind_spd_max_dir,wind_spd_gust,battery_voltage,lat,long
2022-10-10 00:04:00+00:00,242.0,6.03,247.0,6.81,12.49,47.59359,-54.27349
2022-10-10 00:14:01+00:00,231.0,6.59,232.0,7.53,12.49,47.59359,-54.27349
2022-10-10 00:24:01+00:00,236.0,8.43,240.0,9.74,12.49,47.59359,-54.27349
2022-10-10 00:34:01+00:00,236.0,8.47,239.0,9.74,12.49,47.59359,-54.27349
2022-10-10 00:44:01+00:00,235.0,7.9,240.0,9.54,12.49,47.59359,-54.27349
2022-10-10 00:54:01+00:00,235.0,8.37,229.0,10.18,12.49,47.59359,-54.27349
2022-10-10 01:04:01+00:00,233.0,6.76,231.0,7.92,12.49,47.59359,-54.27349
2022-10-10 01:14:01+00:00,239.0,7.97,242.0,9.61,12.49,47.59359,-54.27349
2022-10-10 01:24:01+00:00,240.0,6.96,243.0,8.13,12.49,47.59359,-54.27349
2022-10-10 01:34:01+00:00,246.0,8.17,240.0,9.45,12.49,47.59359,-54.27349
2022-10-10 01:44:01+00:00,238.0,7.77,243.0,8.74,12.49,47.59359,-54.27349
2022-10-10 01:54:01+00:00,233.0,7.5,236.0,9.03,12.49,47.59359,-54.27349
2022-10-10 02:04:01+00:00,250.0,7.71,249.0,9.12,12.49,47.59359,-54.27349
2022-10-10 02:14:01+00:00,241.0,7.06,253.0,9.07,12.49,47.59359,-54.27349
2022-10-10 02:24:01+00:00,239.0,7.19,241.0,8.15,12.49,47.59359,-54.27349
2022-10-10 02:34:01+00:00,239.0,6.27,234.0,7.13,12.49,47.59359,-54.27349
2022-10-10 02:44:01+00:00,228.0,6.45,223.0,7.29,12.49,47.59359,-54.27349
2022-10-10 02:54:01+00:00,232.0,5.87,232.0,6.55,12.49,47.59359,-54.27349
2022-10-10 03:04:01+00:00,228.0,5.93,231.0,7.11,12.49,47.59359,-54.27349
2022-10-10 03:14:01+00:00,228.0,6.9,230.0,7.77,12.41,47.59359,-54.27349
2022-10-10 03:24:01+00:00,236.0,7.06,237.0,8.02,12.41,47.59359,-54.27349
2022-10-10 03:34:01+00:00,233.0,6.15,230.0,6.88,12.41,47.59359,-54.27349
2022-10-10 03:44:01+00:00,241.0,6.47,242.0,7.0,12.41,47.59359,-54.27349
2022-10-10 03:54:01+00:00,247.0,5.48,237.0,6.23,12.41,47.59359,-54.27349
2022-10-10 04:04:01+00:00,248.0,4.41,251.0,4.93,12.41,47.59359,-54.27349
2022-10-10 04:14:01+00:00,251.0,4.48,253.0,4.87,12.41,47.59359,-54.27349
2022-10-10 04:24:01+00:00,237.0,5.53,234.0,6.65,12.41,47.59359,-54.27349
2022-10-10 04:34:01+00:00,257.0,5.74,259.0,6.97,12.41,47.59359,-54.27349
2022-10-10 04:44:01+00:00,260.0,6.32,264.0,7.33,12.41,47.59359,-54.27349
2022-10-10 04:54:01+00:00,252.0,8.3,250.0,9.5,12.41,47.59359,-54.27349
2022-10-10 05:04:01+00:00,258.0,8.39,253.0,10.29,12.41,47.59359,-54.27349
2022-10-10 05:14:01+00:00,247.0,9.41,250.0,10.31,12.41,47.59359,-54.27349
2022-10-10 05:24:01+00:00,247.0,8.97,241.0,10.45,12.41,47.59359,-54.27349
2022-10-10 05:34:01+00:00,252.0,9.1,250.0,10.06,12.41,47.59359,-54.27349
2022-10-10 05:44:01+00:00,246.0,7.95,250.0,8.99,12.41,47.59359,-54.27349
2022-10-10 05:54:01+00:00,241.0,7.33,244.0,8.18,12.41,47.59359,-54.27349
2022-10-10 06:04:01+00:00,243.0,7.83,245.0,9.29,12.41,47.59359,-54.27349
2022-10-10 06:14:00+00:00,249.0,7.88,239.0,9.75,12.41,47.59359,-54.27349
2022-10-10 06:24:00+00:00,241.0,7.73,245.0,9.81,12.41,47.59359,-54.27349
2022-10-10 06:34:00+00:00,234.0,7.52,232.0,9.52,12.41,47.59359,-54.27349
2022-10-10 06:44:00+00:00,241.0,9.69,250.0,11.72,12.41,47.59359,-54.27349
2022-10-10 06:54:00+00:00,242.0,9.56,243.0,11.27,12.41,47.59359,-54.27349
2022-10-10 07:04:00+00:00,245.0,9.42,252.0,10.87,12.41,47.59359,-54.27349
2022-10-10 07:14:01+00:00,248.0,9.76,251.0,11.0,12.33,47.59359,-54.27349
2022-10-10 07:24:01+00:00,251.0,8.89,252.0,10.58,12.33,47.59359,-54.27349
2022-10-10 07:34:01+00:00,252.0,8.62,253.0,10.08,12.33,47.59359,-54.27349
2022-10-10 07:44:01+00:00,249.0,7.69,251.0,8.92,12.33,47.59359,-54.27349
2022-10-10 07:54:01+00:00,248.0,6.31,247.0,7.99,12.33,47.59359,-54.27349
2022-10-10 08:04:01+00:00,242.0,7.74,239.0,9.24,12.33,47.59359,-54.27349
2022-10-10 08:14:01+00:00,239.0,7.63,243.0,8.87,12.33,47.59359,-54.27349
2022-10-10 08:24:01+00:00,243.0,8.43,238.0,9.94,12.33,47.59359,-54.27349
2022-10-10 08:34:01+00:00,229.0,7.35,231.0,8.27,12.33,47.59359,-54.27349
2022-10-10 08:44:01+00:00,238.0,7.98,244.0,9.03,12.33,47.59359,-54.27349
2022-10-10 08:54:01+00:00,229.0,7.95,236.0,9.68,12.33,47.59359,-54.27349
2022-10-10 09:04:01+00:00,228.0,7.68,232.0,8.87,12.33,47.59359,-54.27349
2022-10-10 09:14:01+00:00,231.0,7.92,234.0,9.67,12.25,47.59359,-54.27349
2022-10-10 09:24:01+00:00,230.0,8.2,233.0,9.83,12.25,47.59359,-54.27349
2022-10-10 09:34:01+00:00,236.0,10.06,228.0,11.17,12.25,47.59359,-54.27349
2022-10-10 09:44:01+00:00,236.0,10.82,241.0,12.31,12.25,47.59359,-54.27349
2022-10-10 09:54:01+00:00,234.0,11.46,240.0,12.83,12.25,47.59359,-54.27349
2022-10-10 10:04:01+00:00,247.0,11.2,246.0,12.81,12.25,47.59359,-54.27349
2022-10-10 10:14:00+00:00,251.0,9.56,253.0,11.56,12.25,47.59359,-54.27349
2022-10-10 10:24:00+00:00,248.0,10.81,249.0,12.32,12.25,47.59359,-54.27349
2022-10-10 10:34:00+00:00,248.0,10.41,246.0,11.41,12.25,47.59359,-54.27349
2022-10-10 10:44:00+00:00,253.0,8.72,251.0,9.78,12.25,47.59359,-54.27349
2022-10-10 10:54:00+00:00,249.0,8.71,241.0,10.4,12.25,47.59359,-54.27349
2022-10-10 11:04:00+00:00,255.0,10.06,255.0,11.72,12.25,47.59359,-54.27349
2022-10-10 11:14:01+00:00,245.0,9.83,248.0,11.17,13.44,47.59359,-54.27349
2022-10-10 11:24:01+00:00,249.0,9.42,251.0,10.65,13.44,47.59359,-54.27349
2022-10-10 11:34:01+00:00,241.0,9.77,241.0,11.86,13.44,47.59359,-54.27349
2022-10-10 11:44:01+00:00,244.0,9.45,245.0,12.99,13.44,47.59359,-54.27349
2022-10-10 11:54:01+00:00,247.0,9.43,247.0,11.48,13.44,47.59359,-54.27349
2022-10-10 12:04:01+00:00,251.0,10.01,247.0,11.76,13.44,47.59359,-54.27349
2022-10-10 12:14:00+00:00,274.0,10.99,280.0,13.48,13.6,47.59359,-54.27349
2022-10-10 12:24:00+00:00,269.0,9.0,264.0,10.75,13.6,47.59359,-54.27349
2022-10-10 12:34:00+00:00,253.0,10.64,255.0,12.63,13.6,47.59359,-54.27349
2022-10-10 12:44:00+00:00,260.0,11.36,255.0,13.07,13.6,47.59359,-54.27349
2022-10-10 12:54:00+00:00,250.0,9.27,252.0,11.13,13.6,47.59359,-54.27349
2022-10-10 13:04:00+00:00,261.0,9.83,256.0,11.61,13.6,47.59359,-54.27349
2022-10-10 13:14:01+00:00,285.0,7.02,279.0,9.07,13.84,47.59359,-54.27349
2022-10-10 13:24:01+00:00,285.0,8.88,284.0,13.02,13.84,47.59359,-54.27349
2022-10-10 13:34:01+00:00,289.0,8.65,288.0,10.15,13.84,47.59359,-54.27349
2022-10-10 13:44:01+00:00,290.0,8.22,299.0,10.26,13.84,47.59359,-54.27349
2022-10-10 13:54:01+00:00,295.0,7.76,303.0,9.33,13.84,47.59359,-54.27349
2022-10-10 14:04:01+00:00,297.0,10.0,301.0,11.84,13.84,47.59359,-54.27349
2022-10-10 14:14:01+00:00,300.0,9.51,301.0,10.88,13.44,47.59359,-54.27349
2022-10-10 14:24:01+00:00,282.0,9.6,284.0,10.49,13.44,47.59359,-54.27349
2022-10-10 14:34:01+00:00,291.0,9.42,295.0,10.62,13.44,47.59359,-54.27349
2022-10-10 14:44:01+00:00,282.0,9.02,281.0,10.34,13.44,47.59359,-54.27349
2022-10-10 14:54:01+00:00,288.0,8.62,278.0,10.12,13.44,47.59359,-54.27349
2022-10-10 15:04:01+00:00,278.0,6.13,277.0,7.56,13.44,47.59359,-54.27349
2022-10-10 15:14:00+00:00,279.0,8.85,282.0,10.38,14.08,47.59359,-54.27349
2022-10-10 15:24:00+00:00,287.0,10.23,294.0,10.92,14.08,47.59359,-54.27349
2022-10-10 15:34:00+00:00,281.0,9.35,275.0,10.45,14.08,47.59359,-54.27349
2022-10-10 15:44:00+00:00,283.0,9.8,284.0,11.65,14.08,47.59359,-54.27349
2022-10-10 15:54:00+00:00,271.0,10.3,259.0,11.53,14.08,47.59359,-54.27349
2022-10-10 16:04:00+00:00,280.0,9.75,280.0,10.8,14.08,47.59359,-54.27349
2022-10-10 16:14:00+00:00,266.0,9.18,264.0,10.23,13.84,47.59359,-54.27349
2022-10-10 16:24:00+00:00,269.0,8.48,271.0,9.54,13.84,47.59359,-54.27349
2022-10-10 16:34:00+00:00,271.0,9.6,279.0,10.84,13.84,47.59359,-54.27349
2022-10-10 16:44:00+00:00,267.0,9.51,264.0,10.33,13.84,47.59359,-54.27349
2022-10-10 16:54:00+00:00,261.0,11.11,262.0,11.75,13.84,47.59359,-54.27349
2022-10-10 17:04:00+00:00,262.0,10.93,264.0,12.75,13.84,47.59359,-54.27349
2022-10-10 17:14:00+00:00,271.0,8.8,273.0,10.25,14.32,47.59359,-54.27349
2022-10-10 17:24:00+00:00,270.0,9.83,268.0,11.06,14.32,47.59359,-54.27349
2022-10-10 17:34:00+00:00,268.0,8.7,265.0,9.69,14.32,47.59359,-54.27349
2022-10-10 17:44:00+00:00,254.0,11.74,252.0,13.08,14.32,47.59359,-54.27349
2022-10-10 17:54:00+00:00,254.0,10.38,254.0,11.89,14.32,47.59359,-54.27349
2022-10-10 18:04:00+00:00,267.0,10.8,270.0,12.5,14.32,47.59359,-54.27349
2022-10-10 18:14:01+00:00,275.0,10.33,275.0,12.21,14.4,47.59359,-54.27349
2022-10-10 18:24:01+00:00,274.0,11.37,270.0,13.22,14.4,47.59359,-54.27349
2022-10-10 18:34:01+00:00,271.0,9.9,274.0,12.13,14.4,47.59359,-54.27349
2022-10-10 18:44:01+00:00,264.0,10.43,259.0,11.61,14.4,47.59359,-54.27349
2022-10-10 18:54:01+00:00,262.0,12.51,263.0,14.08,14.4,47.59359,-54.27349
2022-10-10 19:04:01+00:00,263.0,9.86,257.0,11.98,14.4,47.59359,-54.27349
2022-10-10 19:14:01+00:00,265.0,10.44,264.0,11.27,13.68,47.59359,-54.27349
2022-10-10 19:24:01+00:00,262.0,10.37,260.0,11.27,13.68,47.59359,-54.27349
2022-10-10 19:34:01+00:00,256.0,9.32,254.0,10.7,13.68,47.59359,-54.27349
2022-10-10 19:44:01+00:00,253.0,10.73,251.0,12.11,13.68,47.59359,-54.27349
2022-10-10 19:54:01+00:00,251.0,9.77,254.0,12.49,13.68,47.59359,-54.27349
2022-10-10 20:04:01+00:00,265.0,10.79,266.0,11.67,13.68,47.59359,-54.27349
2022-10-10 20:14:00+00:00,255.0,10.67,256.0,12.34,13.76,47.59359,-54.27349
2022-10-10 20:24:00+00:00,263.0,10.86,269.0,11.66,13.76,47.59359,-54.27349
2022-10-10 20:34:00+00:00,253.0,9.17,263.0,10.52,13.76,47.59359,-54.27349
2022-10-10 20:44:00+00:00,257.0,10.18,253.0,11.53,13.76,47.59359,-54.27349
2022-10-10 20:54:00+00:00,261.0,10.7,263.0,11.82,13.76,47.59359,-54.27349
2022-10-10 21:04:00+00:00,258.0,8.33,261.0,10.38,13.76,47.59359,-54.27349
2022-10-10 21:14:00+00:00,258.0,10.35,255.0,11.58,13.05,47.59359,-54.27349
2022-10-10 21:24:00+00:00,253.0,10.19,252.0,11.34,13.05,47.59359,-54.27349
2022-10-10 21:34:00+00:00,262.0,9.19,265.0,10.63,13.05,47.59359,-54.27349
2022-10-10 21:44:00+00:00,258.0,8.98,255.0,10.3,13.05,47.59359,-54.27349
2022-10-10 21:54:00+00:00,254.0,8.57,259.0,10.03,13.05,47.59359,-54.27349
2022-10-10 22:04:00+00:00,253.0,10.84,257.0,12.35,13.05,47.59359,-54.27349
2022-10-10 22:14:00+00:00,251.0,10.35,256.0,11.45,12.57,47.59359,-54.27349
2022-10-10 22:24:00+00:00,250.0,9.51,253.0,11.02,12.57,47.59359,-54.27349
2022-10-10 22:34:00+00:00,253.0,8.56,259.0,10.22,12.57,47.59359,-54.27349
2022-10-10 22:44:00+00:00,260.0,10.5,269.0,12.25,12.57,47.59359,-54.27349
2022-10-10 22:54:00+00:00,254.0,8.87,254.0,10.54,12.57,47.59359,-54.27349
2022-10-10 23:04:00+00:00,254.0,8.76,258.0,9.89,12.57,47.59359,-54.27349
2022-10-10 23:14:00+00:00,252.0,9.27,251.0,10.81,12.49,47.59359,-54.27349
2022-10-10 23:24:00+00:00,254.0,9.73,261.0,11.36,12.49,47.59359,-54.27349
2022-10-10 23:34:00+00:00,255.0,9.95,257.0,11.29,12.49,47.59359,-54.27349
2022-10-10 23:44:00+00:00,262.0,9.14,266.0,10.41,12.49,47.59359,-54.27349
2022-10-10 23:54:00+00:00,258.0,9.97,261.0,11.03,12.49,47.59359,-54.27349
